Regional Weather Roundup
Issued by NWS

Home | Current Version | Previous Version | Graphics & Text | Print | Product List | Glossary On
Versions: 1 2 3 4 5 6 7 8 9 10 11 12 13 14 15 16 17 18 19 20 21 22 23 24 25 26 27 28 29 30 31 32 33 34 35 36 37 38 39 40 41 42 43 44 45 46 47 48 49 50
000
ASUS43 KOAX 220802
RWRNE

WEATHER ROUNDUP FOR NEBRASKA
NATIONAL WEATHER SERVICE OMAHA NE
300 AM CDT MON MAY 22 2017

NOTES: SATELLITE DATA IS BEING USED TO AUGMENT CLOUD COVER ABOVE
       12000 FEET.
       "FAIR" INDICATES FEW OR NO CLOUDS BELOW 12,000 FEET WITH NO
       SIGNIFICANT WEATHER AND/OR OBSTRUCTIONS TO VISIBILITY.

  * THESE STATIONS DO NOT REPORT WEATHER SUCH AS RAIN...SNOW OR FOG.

NEZ001>004-019>022-054>056-220900-
NEBRASKA PANHANDLE

CITY           SKY/WX    TMP DP  RH WIND       PRES   REMARKS
SCOTTSBLUFF    CLEAR     42  32  67 NW7       30.17F
ALLIANCE       CLEAR     38  36  92 W10       30.13F WCI  31
CHADRON        CLEAR     42  38  85 W9        30.11F
GORDON         FAIR      43  39  85 W8        30.08F
SIDNEY         CLOUDY    42  39  89 NW9       30.19F
$$

NEZ057>060-069>072-079>082-220900-
SOUTHWEST NEBRASKA

CITY           SKY/WX    TMP DP  RH WIND       PRES   REMARKS
NORTH PLATTE   CLEAR     45  43  93 W7        30.11S
IMPERIAL       CLOUDY    52  46  80 W9        30.15F
LEXINGTON      CLOUDY    55  47  76 SW7       30.10F
MCCOOK         CLOUDY    54  50  86 SW9       30.13F
OGALLALA       PTCLDY    45  42  90 W8        30.15S
$$

NEZ005>010-023>029-035>040-094-220900-
NORTH CENTRAL NEBRASKA

CITY           SKY/WX    TMP DP  RH WIND       PRES   REMARKS
VALENTINE      CLEAR     45  39  79 W6        30.04F
AINSWORTH      CLEAR     48  44  85 W8        30.04F
BROKEN BOW     PTCLDY    49  45  86 W9        30.06S
O`NEILL        CLOUDY    55  45  69 W9        30.02S
ORD            PTCLDY    49  44  83 CALM      30.04R
$$

NEZ041-046>049-061>064-073>077-083>087-220900-
SOUTH CENTRAL NEBRASKA

CITY           SKY/WX    TMP DP  RH WIND       PRES   REMARKS
GRAND ISLAND   CLEAR     56  47  71 W13       30.04F
AURORA         CLEAR     53  47  79 W8        30.03F
HASTINGS       CLOUDY    57  46  66 W10       30.06F
HEBRON         CLOUDY    55  51  87 W6        30.07R
HOLDREGE       MOCLDY    56  46  71 W7        30.09F
KEARNEY *      MOCLDY    57  45  62 W8        30.08F
YORK           PTCLDY    54  48  82 SW10      30.03F
$$

NEZ011>018-030>034-042>045-220900-
NORTHEAST NEBRASKA

CITY           SKY/WX    TMP DP  RH WIND       PRES   REMARKS
NORFOLK        CLOUDY    56  41  57 SW12      29.99F
ALBION         CLEAR     52  41  66 CALM      30.01S
BLAIR          PTCLDY    52  45  77 S7        30.00F
FREMONT        PTCLDY    56  44  64 S8        30.00F
TEKAMAH        CLOUDY    52  46  80 SE9       29.99F
WAYNE          CLOUDY    53  45  72 CALM      29.98F
$$

NEZ050>053-065>068-078-088>093-220900-
SOUTHEAST NEBRASKA

CITY           SKY/WX    TMP DP  RH WIND       PRES   REMARKS
LINCOLN        CLEAR     50  45  83 S5        30.03F
OMAHA EPPLEY   PTCLDY    50  44  80 SE9       30.01F
BEATRICE       CLEAR     54  47  75 S7        30.04F
FALLS CITY     CLEAR     53  45  74 S8        30.06F
NEBRASKA CITY  CLEAR     54  39  58 S9        30.04F
$$

NEZ044-045-051>053-067-220900-
OMAHA AREA

CITY           SKY/WX    TMP DP  RH WIND       PRES   REMARKS
OMAHA EPPLEY   PTCLDY    50  44  80 SE9       30.01F
BLAIR          PTCLDY    52  45  77 S7        30.00F
FREMONT        PTCLDY    56  44  64 S8        30.00F
MILLARD        CLEAR     52  46  80 CALM      30.01F
OFFUTT AFB     CLEAR     54  42  64 VRB3      30.03F
WAHOO          FAIR      52  45  76 S9        30.01F
$$




USA.gov is the U.S. government's official web portal to all federal, state and local government web resources and services.